Terminal Aerodrome Forecast
Issued by NWS

Home | Current Version | Previous Version | Text Only | Print | Product List | Glossary On
Versions: 1 2 3 4 5 6 7 8 9 10 11 12 13 14 15 16 17 18 19 20 21 22 23 24 25 26 27 28 29 30 31 32 33 34 35 36 37 38 39 40 41 42 43 44 45 46 47 48 49 50
000
FTUS44 KFWD 241243 AAA
TAFFTW
TAF AMD
KFTW 241243Z 2413/2512 14008KT P6SM VCSH BKN015 BKN080
     FM241800 05008KT 6SM SHRA VCTS OVC015CB
      TEMPO 2421/2424 2SM -TSRA BR
     FM250000 03008KT 5SM -DZ BR VCSH OVC009
     FM250400 35005KT P6SM BKN025=

USA.gov is the U.S. government's official web portal to all federal, state and local government web resources and services.